Location: Proctor
(47.8934°N, 114.3048°W)
Time: 22:57:25
(UTC+00:00)

CAS-6 - Pass Details

Date: 27 June 2022
Orbit: 613 x 634 km, 97.9° (Epoch: 18 August)

Event Time Altitude Azimuth Distance (km) Brightness Sun altitude
Exits shadow 05:49:13 23° 167° (SSE) 1,327 ? -14.5°
Maximum altitude 05:51:54 87° 252° (WSW) 636 ? -14.7°
Drops below altitude 10° 05:56:17 10° 346° (NNW) 2,010 ? -15.1°
Sets 05:58:29 0° 347° (NNW) 2,918 ? -15.2°
